Showing default

EUTE 113 WEST A(SATMEX 6, 29162

Orbit data source: Space-Track

EUTE 113 WEST A(SATMEX 6, 29162 is a payload satellite owned by Satmex (FR) in GEO that was launched on Sat, 27 May 2006 UTC via an ARIANE 5ECA launch vehicle from the French Guiana (FRGUI). Payloads include a variety of satellites, spacecraft, and rockets equipped with specific instruments for various scientific and technological missions. These include communications satellites like Starlink; space stations such as the ISS; scientific satellites like the Hubble; Earth observation satellites from companies like Planet Labs, Umbra, and HawkEye 360; GPS; miniature CubeSats for education and research; and military/defense satellites.

Not visible in the next 10 days
EUTE 113 WEST A(SATMEX 6 details
Identifier
29162, 2006-020A
Orbit
GEO
Last TLE update14 hours ago
Origin
Flag of FRSatmex (FR / EUTE)
ManufacturerSS/Loral
MissionNon-operational Commercial Communications
Bus & MotorSSL-1300X, R-4D-15-300
Mass5,456 kg wet, 2,310 kg dry
Launch date (UTC)
2006-05-27 (19 years ago)
Launch vehicle
ARIANE 5ECA
Launch site
French Guiana (FRGUI)
Object type
Payload
Rocket body
Debris
Shape & HBRBox + 2 Pan, 2.8 m
Radar Cross Section46.105 m², Large (>1 m²)

Expand to show TLE details & history

TLE from 14 hours ago
0 EUTE 113 WEST A(SATMEX 6
1 29162U 06020A   25035.57406020 -.00000184  00000-0  00000-0 0  9991
2 29162   1.0792  88.9675 0004426 234.1063 194.8222  0.98938525 68448
Epoch: 2025-02-04T13:46Z
Definitive object data (Epoch: 2025-02-04T13:46:38.801Z)
Latitude1.02406°
Longitude176.26436°
Altitude36,182.182 km
Speed3.06 km/s
True Right ascension10h 31m 36s
True Declination1° 01' 23"
Sunlit
Object was in daylight at TLE epoch
Visualization TLE readout
Latitude-1.08661°
Longitude26.15323°
Altitude36,150.74 km
Speed3.062 km/s
Apparent Right ascension00h 04m 43s
Apparent Declination-6° 36' 44"
Sunlit
Object is in daylight
Visualization observer readout
Local Sidereal Time05:56:43
Azimuth263.646° W
Elevation-2.712°
Doppler factor1
Orbital elements
Apogee altitude36,184.438 km
Perigee altitude36,146.778 km
Semi-major axis42,543.745 km
Eccentricity0.0004426
Inclination1.0792°
RAAN88.9675°
Arg. of periapsis234.1063°
True anomaly194.80923°
Mean anomaly194.8222°
Eccentric anomaly194.81572°
Mean motion0.24734 °/min
BSTARUnknown
Orbital period1455.5 mins
Loading historical data...
29162 neighbors
Authenticating...
Loading maneuver chart data...
Loading historical data...
Loading historical data...
Loading historical data...
Loading historical data...
Loading historical data...
Loading historical data...
Loading historical data...
Other satellites on launch #20 in the year 2006 (2006-05-27 UTC)

EUTE 113 WEST A(SATMEX 6 Visibility forecast

Observer location: undefined°, undefined

EUTE 113 WEST A(SATMEX 6 is not visible in the next 10 days
Span
Click to sort rows by Start time (UTC) header in descending order
Start Az.
Max El. time (UTC)
Max El. Az.
Max El.
End time (UTC)
End Az.
|